Tracking 19564 objects as of 20-Mar-2019
HD Live streaming from Space Station
objects crossing your sky now

GALS 2

Track GALS 2 now!
GALS 2 is classified as:


NORAD ID: 23717
Int'l Code: 1995-063A
Perigee: 35,852.2 km
Apogee: 35,957.7 km
Inclination: 13.5 °
Period: 1,441.8 minutes
Semi major axis: 42275 km
RCS: 8.9125 m2 (large)
Launch date: November 17, 1995
Source: Commonwealth of Independent States (former USSR) (CIS)
Launch site: TYURATAM MISSILE AND SPACE COMPLEX (TTMTR)
aabbcc
Your satellite tracking list
Your tracking list is empty




NASA's NSSDC Master Catalog

Two Line Element Set (TLE):
1 23717U 95063A   19077.89981248 -.00000169 +00000-0 +00000-0 0  9993
2 23717 013.4864 023.2299 0012478 296.2416 270.0596 00.99876526085180
Source of the keplerian elements: AFSPC